This is the latest recevied weather packets stored in our database for station/object VR2HK-13. If no packets are shown the sender has not sent any weather packets the latest 1 day(s).
| Time | Temp. | Humidity | Pressure | Rain* | Wind** | Luminosity | Snow |
|---|---|---|---|---|---|---|---|
| 1777997991 | 21.11° C | 89% | 1013.3 hPa | 0 mm | 3.13 m/s, 274° | - | - |
| 1777997699 | 21.11° C | 89% | 1013.4 hPa | 0 mm | 0.45 m/s, 294° | - | - |
| 1777997681 | 21.11° C | 89% | 1013.3 hPa | 0 mm | 0.89 m/s, 307° | - | - |
| 1777997400 | 21.11° C | 89% | 1013.3 hPa | 0 mm | 2.24 m/s, 230° | - | - |
| 1777997371 | 21.11° C | 89% | 1013.4 hPa | 0 mm | 2.24 m/s, 196° | - | - |
| 1777997100 | 21.11° C | 89% | 1013.3 hPa | 0 mm | 3.58 m/s, 258° | - | - |
| 1777997061 | 21.11° C | 89% | 1013.3 hPa | 0 mm | 4.02 m/s, 200° | - | - |
| 1777996799 | 21.11° C | 89% | 1013.2 hPa | 0 mm | 2.24 m/s, 235° | - | - |
| 1777996750 | 21.11° C | 90% | 1013.2 hPa | 0 mm | 1.79 m/s, 251° | - | - |
| 1777996499 | 21.11° C | 89% | 1013.3 hPa | 0 mm | 0.45 m/s, 48° | - | - |
| 1777996441 | 21.11° C | 89% | 1013.3 hPa | 0 mm | 0.89 m/s, 308° | - | - |
| 1777996200 | 21.11° C | 89% | 1013.5 hPa | 0 mm | 1.79 m/s, 281° | - | - |
| 1777996130 | 21.11° C | 89% | 1013.4 hPa | 0 mm | 0.89 m/s, 263° | - | - |
| 1777995899 | 21.11° C | 89% | 1013.5 hPa | 0 mm | 0.45 m/s, 280° | - | - |
| 1777995820 | 21.11° C | 89% | 1013.5 hPa | 0 mm | 0 m/s | - | - |
| 1777995599 | 21.11° C | 89% | 1013.6 hPa | 0 mm | 0.89 m/s, 243° | - | - |
| 1777995511 | 21.11° C | 89% | 1013.6 hPa | 0 mm | 2.24 m/s, 210° | - | - |
| 1777995300 | 21.11° C | 89% | 1013.6 hPa | 0 mm | 1.79 m/s, 225° | - | - |
| 1777995200 | 21.11° C | 89% | 1013.7 hPa | 0 mm | 1.79 m/s, 261° | - | - |
| 1777994999 | 21.11° C | 89% | 1013.7 hPa | 0 mm | 0.89 m/s, 253° | - | - |
| 1777994890 | 21.11° C | 89% | 1013.7 hPa | 0 mm | 1.34 m/s, 347° | - | - |
| 1777994699 | 21.11° C | 89% | 1013.7 hPa | 0 mm | 0.45 m/s, 6° | - | - |
| 1777994581 | 21.11° C | 89% | 1013.8 hPa | 0 mm | 0.89 m/s, 253° | - | - |
| 1777994399 | 21.11° C | 89% | 1013.8 hPa | 0 mm | 0 m/s | - | - |
| 1777994270 | 21.11° C | 89% | 1013.8 hPa | 0 mm | 1.34 m/s, 40° | - | - |
* Rain latest hour (hover to see other rain measurements)
** Current wind speed in m/s (hover to see current wind gust speed)